GW3201 Weather Reports


time (UTC)temp
C
wind
direction
speed
KPH
gust
KPH
rain 1hr
cm
rain 24hr
cm
rain mn
cm
humidity
%
barometer
mb
20260902014535 18 253 9.7 30.6 0.00 0.00 0.00 60 1015.5
20260902014013 18 302 16.1 30.6 0.00 0.00 0.00 59 1015.5
20260902013516 18 253 9.7 22.5 0.00 0.00 0.00 59 1015.4
20260902013030 18 285 4.8 25.7 0.00 0.00 0.00 59 1015.4
20260902012514 18 257 14.5 25.7 0.00 0.00 0.00 59 1015.4
20260902012017 18 174 16.1 25.7 0.00 0.00 0.00 58 1015.3
20260902011532 19 283 11.3 24.1 0.00 0.00 0.00 57 1015.3
20260902011017 19 259 6.4 19.3 0.00 0.00 0.00 57 1015.3
20260902010504 19 254 6.4 19.3 0.00 0.00 0.00 57 1015.3
20260902010028 19 268 9.7 25.7 0.00 0.00 0.00 56 1015.3
20260902005506 19 223 11.3 25.7 0.00 0.00 0.00 56 1015.3
20260902005009 19 266 11.3 24.1 0.00 0.00 0.00 56 1015.3
20260902004527 19 200 8.0 24.1 0.00 0.00 0.00 55 1015.3
20260902004012 20 224 11.3 25.7 0.00 0.00 0.00 55 1015.3
20260902003513 20 264 6.4 25.7 0.00 0.00 0.00 55 1015.2
20260902003034 20 157 8.0 22.5 0.00 0.00 0.00 55 1015.2
20260902002515 20 242 6.4 22.5 0.00 0.00 0.00 54 1015.1
20260902002005 20 230 6.4 16.1 0.00 0.00 0.00 53 1015.2
20260902001511 20 238 8.0 16.1 0.00 0.00 0.00 51 1015.3
20260902001004 20 267 9.7 19.3 0.00 0.00 0.00 51 1015.3
20260902000505 20 241 6.4 19.3 0.00 0.00 0.00 52 1015.2
20260902000008 20 253 6.4 16.1 0.00 0.00 0.00 52 1015.3
20260901235502 20 239 6.4 20.9 0.00 0.00 0.00 52 1015.3
20260901235002 20 219 8.0 24.1 0.00 0.00 0.00 52 1015.3
20260901234503 20 347 12.9 24.1 0.00 0.00 0.00 52 1015.3
20260901234002 20 281 11.3 19.3 0.00 0.00 0.00 53 1015.3
20260901233503 20 253 9.7 25.7 0.00 0.00 0.00 52 1015.2
20260901233004 20 167 6.4 25.7 0.00 0.00 0.00 52 1015.3
20260901232503 20 338 8.0 33.8 0.00 0.00 0.00 52 1015.2
20260901232003 20 295 8.0 33.8 0.00 0.00 0.00 52 1015.3
20260901231506 20 224 19.3 29.0 0.00 0.00 0.00 51 1015.4
20260901231004 20 264 11.3 27.4 0.00 0.00 0.00 50 1015.3
20260901230505 20 236 6.4 24.1 0.00 0.00 0.00 50 1015.4
20260901230012 20 212 9.7 27.4 0.00 0.00 0.00 50 1015.5
20260901225505 20 305 9.7 27.4 0.00 0.00 0.00 50 1015.4
20260901225007 20 224 12.9 25.7 0.00 0.00 0.00 49 1015.5
20260901224519 20 305 8.0 29.0 0.00 0.00 0.00 50 1015.4
20260901224001 21 271 12.9 29.0 0.00 0.00 0.00 50 1015.4
20260901223502 20 244 9.7 25.7 0.00 0.00 0.00 50 1015.4
20260901223005 20 173 4.8 25.7 0.00 0.00 0.00 51 1015.4
20260901222503 20 233 9.7 25.7 0.00 0.00 0.00 51 1015.5
20260901222002 20 28 8.0 25.7 0.00 0.00 0.00 51 1015.5
20260901221504 21 320 11.3 25.7 0.00 0.00 0.00 52 1015.6
20260901221004 20 276 11.3 20.9 0.00 0.00 0.00 52 1015.7
20260901220504 20 294 8.0 24.1 0.00 0.00 0.00 53 1015.7
20260901220004 20 289 9.7 24.1 0.00 0.00 0.00 53 1015.7
20260901215505 20 318 8.0 24.1 0.00 0.00 0.00 52 1015.8
20260901215004 20 278 6.4 24.1 0.00 0.00 0.00 53 1015.8
20260901214507 21 281 8.0 19.3 0.00 0.00 0.00 52 1015.8
20260901214004 20 304 9.7 24.1 0.00 0.00 0.00 53 1015.8
20260901213508 20 291 6.4 24.1 0.00 0.00 0.00 52 1015.9
20260901213016 21 343 8.0 25.7 0.00 0.00 0.00 51 1015.9
20260901212509 21 262 4.8 25.7 0.00 0.00 0.00 49 1015.8
20260901212013 21 229 16.1 25.7 0.00 0.00 0.00 47 1015.8
20260901211503 21 206 9.7 27.4 0.00 0.00 0.00 47 1015.8
20260901211003 21 295 8.0 27.4 0.00 0.00 0.00 48 1015.8
20260901210503 21 260 9.7 17.7 0.00 0.00 0.00 49 1015.9
20260901210003 21 243 6.4 17.7 0.00 0.00 0.00 50 1015.9
20260901205506 21 245 9.7 22.5 0.00 0.00 0.00 50 1015.9
20260901205002 21 242 11.3 22.5 0.00 0.00 0.00 49 1015.8
20260901204510 21 282 4.8 19.3 0.00 0.00 0.00 48 1015.8
20260901204003 21 242 4.8 19.3 0.00 0.00 0.00 48 1015.8
20260901203505 21 148 6.4 16.1 0.00 0.00 0.00 48 1015.8
20260901203018 20 266 4.8 17.7 0.00 0.00 0.00 48 1015.9
20260901202505 20 259 6.4 17.7 0.00 0.00 0.00 49 1016.0
20260901202008 20 261 6.4 22.5 0.00 0.00 0.00 50 1016.1
20260901201519 20 248 11.3 22.5 0.00 0.00 0.00 50 1016.2
20260901201008 20 250 6.4 17.7 0.00 0.00 0.00 50 1016.1
20260901200515 20 249 4.8 17.7 0.00 0.00 0.00 50 1016.2
20260901200026 20 324 4.8 16.1 0.00 0.00 0.00 51 1016.1
20260901195504 20 337 4.8 16.1 0.00 0.00 0.00 52 1016.3
20260901195004 20 250 8.0 17.7 0.00 0.00 0.00 53 1016.2
20260901194504 20 302 6.4 17.7 0.00 0.00 0.00 53 1016.2
20260901194019 20 332 4.8 19.3 0.00 0.00 0.00 54 1016.3
20260901193503 19 265 4.8 20.9 0.00 0.00 0.00 55 1016.3
20260901193011 20 294 8.0 20.9 0.00 0.00 0.00 54 1016.3
20260901192503 19 304 6.4 19.3 0.00 0.00 0.00 56 1016.4
20260901192005 19 295 8.0 19.3 0.00 0.00 0.00 55 1016.4
20260901191517 19 269 6.4 22.5 0.00 0.00 0.00 55 1016.4
20260901191007 18 305 6.4 22.5 0.00 0.00 0.00 56 1016.3
20260901190508 18 241 11.3 22.5 0.00 0.00 0.00 57 1016.4
20260901190025 18 283 9.7 17.7 0.00 0.00 0.00 57 1016.4
20260901185517 18 314 8.0 17.7 0.00 0.00 0.00 56 1016.5
20260901185013 19 238 8.0 20.9 0.00 0.00 0.00 55 1016.5
20260901184527 19 232 8.0 20.9 0.00 0.00 0.00 57 1016.5
20260901184014 19 176 6.4 14.5 0.00 0.00 0.00 58 1016.5
20260901183506 18 172 4.8 12.9 0.00 0.00 0.00 57 1016.5
20260901183010 18 300 3.2 12.9 0.00 0.00 0.00 57 1016.6
20260901182503 18 229 6.4 12.9 0.00 0.00 0.00 58 1016.5
20260901182004 18 304 6.4 22.5 0.00 0.00 0.00 58 1016.5
20260901181516 18 278 6.4 22.5 0.00 0.00 0.00 57 1016.5
20260901181011 18 275 8.0 22.5 0.00 0.00 0.00 59 1016.5
20260901180508 18 257 4.8 17.7 0.00 0.00 0.00 59 1016.4
20260901180017 18 250 8.0 22.5 0.00 0.00 0.00 59 1016.4
20260901175508 18 252 11.3 22.5 0.00 0.00 0.00 58 1016.3
20260901175008 18 233 8.0 14.5 0.00 0.00 0.00 59 1016.3
20260901174524 18 216 4.8 14.5 0.00 0.00 0.00 60 1016.2
20260901174010 18 190 4.8 17.7 0.00 0.00 0.00 61 1016.1
20260901173513 18 251 6.4 19.3 0.00 0.00 0.00 61 1016.2
20260901173035 18 178 4.8 19.3 0.00 0.00 0.00 59 1016.2
20260901172515 18 303 8.0 16.1 0.00 0.00 0.00 60 1016.1
20260901172013 18 261 6.4 20.9 0.00 0.00 0.00 58 1016.0
20260901171509 18 255 3.2 20.9 0.00 0.00 0.00 59 1016.0
20260901171007 18 215 9.7 20.9 0.00 0.00 0.00 59 1016.0
20260901170504 18 259 11.3 20.9 0.00 0.00 0.00 59 1015.9
20260901170029 18 220 11.3 22.5 0.00 0.00 0.00 58 1016.0
20260901165506 18 158 11.3 22.5 0.00 0.00 0.00 62 1015.9
20260901165008 18 237 6.4 16.1 0.00 0.00 0.00 63 1015.9
20260901164521 17 211 8.0 16.1 0.00 0.00 0.00 65 1015.9
20260901164009 17 248 6.4 14.5 0.00 0.00 0.00 64 1015.8
20260901163510 17 266 6.4 17.7 0.00 0.00 0.00 66 1015.8
20260901163035 17 233 6.4 17.7 0.00 0.00 0.00 67 1016.0
20260901162517 17 227 4.8 17.7 0.00 0.00 0.00 69 1016.0
20260901162011 17 250 6.4 17.7 0.00 0.00 0.00 70 1016.0
20260901161529 17 233 4.8 17.7 0.00 0.00 0.00 71 1015.8
20260901161020 17 235 6.4 17.7 0.00 0.00 0.00 70 1015.8
20260901160514 17 165 4.8 12.9 0.00 0.00 0.00 72 1015.8
20260901160031 16 244 4.8 12.9 0.00 0.00 0.00 74 1015.7
20260901155505 16 245 1.6 12.9 0.00 0.00 0.00 74 1015.7
20260901155005 16 257 6.4 14.5 0.00 0.00 0.00 74 1015.6
20260901154516 16 230 3.2 20.9 0.00 0.00 0.00 74 1015.5
20260901154011 16 233 9.7 20.9 0.00 0.00 0.00 74 1015.5
20260901153511 16 249 4.8 17.7 0.00 0.00 0.00 74 1015.5
20260901153018 16 145 6.4 12.9 0.00 0.00 0.00 75 1015.4
20260901152511 16 255 6.4 16.1 0.00 0.00 0.00 74 1015.4
20260901152002 16 174 1.6 16.1 0.00 0.00 0.00 75 1015.3
20260901151503 16 243 6.4 17.7 0.00 0.00 0.00 75 1015.3
20260901151004 16 236 11.3 17.7 0.00 0.00 0.00 75 1015.2
20260901150503 16 243 4.8 14.5 0.00 0.00 0.00 75 1015.2
20260901150007 16 252 6.4 14.5 0.00 0.00 0.00 75 1015.2
20260901145505 16 205 4.8 9.7 0.00 0.00 0.00 75 1015.2
20260901145005 16 170 6.4 16.1 0.00 0.00 0.00 74 1015.0
20260901144513 16 240 6.4 16.1 0.00 0.00 0.00 73 1015.0
20260901144005 16 254 4.8 16.1 0.00 0.00 0.00 72 1015.0
20260901143508 16 243 4.8 14.5 0.00 0.00 0.00 73 1014.8
20260901143017 16 295 4.8 12.9 0.00 0.00 0.00 73 1014.9
20260901142508 16 248 4.8 11.3 0.00 0.00 0.00 73 1014.9
20260901142011 16 234 4.8 11.3 0.00 0.00 0.00 75 1014.8
20260901141503 15 213 3.2 9.7 0.00 0.00 0.00 74 1014.8
20260901141003 15 176 1.6 9.7 0.00 0.00 0.00 76 1014.7
20260901140504 15 250 3.2 17.7 0.00 0.00 0.00 76 1014.6
20260901140007 15 273 9.7 17.7 0.00 0.00 0.00 75 1014.4
20260901135503 15 293 8.0 12.9 0.00 0.00 0.00 77 1014.5
20260901135004 15 274 4.8 9.7 0.00 0.00 0.00 78 1014.4
20260901134507 15 252 1.6 8.0 0.00 0.00 0.00 78 1014.2
20260901134009 15 304 1.6 8.0 0.00 0.00 0.00 79 1014.2
20260901133506 15 245 3.2 11.3 0.00 0.00 0.00 79 1014.2
20260901133012 15 162 3.2 11.3 0.00 0.00 0.00 79 1014.1
20260901132505 15 263 4.8 12.9 0.00 0.00 0.00 79 1014.0
20260901132009 15 277 1.6 12.9 0.00 0.00 0.00 79 1014.0
20260901131521 15 235 4.8 12.9 0.00 0.00 0.00 79 1013.9
20260901131008 15 259 3.2 11.3 0.00 0.00 0.00 79 1013.9
20260901130512 15 237 1.6 11.3 0.00 0.00 0.00 79 1013.9
20260901130027 15 200 3.2 11.3 0.00 0.00 0.00 78 1014.1
20260901125503 15 247 4.8 11.3 0.00 0.00 0.00 78 1013.9
20260901125003 15 226 3.2 11.3 0.00 0.00 0.00 78 1013.9
20260901124507 15 231 4.8 11.3 0.00 0.00 0.00 78 1013.8
20260901124004 15 290 3.2 11.3 0.00 0.00 0.00 78 1013.8
20260901123506 15 306 3.2 16.1 0.00 0.00 0.00 77 1013.8
20260901123027 15 246 3.2 16.1 0.00 0.00 0.00 77 1013.8
20260901122504 15 258 6.4 14.5 0.00 0.00 0.00 78 1013.7
20260901122006 15 139 4.8 14.5 0.00 0.00 0.00 78 1013.7
20260901121514 15 241 4.8 14.5 0.00 0.00 0.00 78 1013.6
20260901121007 15 238 6.4 17.7 0.00 0.00 0.00 78 1013.6
20260901120511 15 166 8.0 17.7 0.00 0.00 0.00 77 1013.6
20260901120022 15 251 6.4 12.9 0.00 0.00 0.00 77 1013.5
20260901115509 15 245 6.4 19.3 0.00 0.00 0.00 77 1013.6
20260901115009 15 248 6.4 19.3 0.00 0.00 0.00 77 1013.7
20260901114537 15 235 6.4 14.5 0.00 0.00 0.00 77 1013.7
20260901114011 15 279 6.4 16.1 0.00 0.00 0.00 77 1013.7
20260901113513 15 229 4.8 16.1 0.00 0.00 0.00 76 1013.8
20260901113013 15 250 4.8 19.3 0.00 0.00 0.00 75 1013.8
20260901112505 15 221 6.4 19.3 0.00 0.00 0.00 75 1013.8
20260901112003 15 231 9.7 19.3 0.00 0.00 0.00 75 1013.9
20260901111510 15 245 8.0 16.1 0.00 0.00 0.00 74 1013.9
20260901111006 15 230 6.4 17.7 0.00 0.00 0.00 74 1013.8
20260901110508 15 247 6.4 17.7 0.00 0.00 0.00 74 1013.7
20260901110017 15 266 4.8 12.9 0.00 0.00 0.00 74 1013.8
20260901105509 15 262 4.8 12.9 0.00 0.00 0.00 74 1013.8
20260901105011 15 257 4.8 16.1 0.00 0.00 0.00 74 1013.8
20260901104524 15 238 6.4 16.1 0.00 0.00 0.00 74 1013.7
20260901104013 15 239 4.8 16.1 0.00 0.00 0.00 74 1013.7
20260901103513 15 294 3.2 20.9 0.00 0.00 0.00 74 1013.6
20260901103031 15 239 4.8 20.9 0.00 0.00 0.00 73 1013.6
20260901102512 15 203 3.2 14.5 0.00 0.00 0.00 74 1013.5
20260901102015 15 296 4.8 16.1 0.00 0.00 0.00 74 1013.5
20260901101532 15 245 6.4 16.1 0.00 0.00 0.00 74 1013.5
20260901101005 15 225 8.0 16.1 0.00 0.00 0.00 74 1013.5
20260901100504 15 256 4.8 16.1 0.00 0.00 0.00 74 1013.4
20260901100013 15 300 3.2 19.3 0.00 0.00 0.00 74 1013.4
20260901095509 15 240 6.4 19.3 0.00 0.00 0.00 74 1013.5
20260901095007 15 248 6.4 20.9 0.00 0.00 0.00 73 1013.5
20260901094527 15 233 6.4 20.9 0.00 0.00 0.00 73 1013.5
20260901094008 15 245 8.0 19.3 0.00 0.00 0.00 73 1013.5
20260901093510 15 252 6.4 19.3 0.00 0.00 0.00 73 1013.6
20260901093029 15 271 6.4 19.3 0.00 0.00 0.00 73 1013.6
20260901092514 15 258 6.4 19.3 0.00 0.00 0.00 73 1013.6
20260901092004 15 269 6.4 19.3 0.00 0.00 0.00 73 1013.7
20260901091505 15 271 6.4 19.3 0.00 0.00 0.00 73 1013.6
20260901091003 15 214 8.0 17.7 0.00 0.00 0.00 73 1013.7
20260901090502 15 248 8.0 25.7 0.00 0.00 0.00 73 1013.7
20260901090013 15 176 11.3 25.7 0.00 0.00 0.00 73 1013.7
20260901085504 15 235 8.0 22.5 0.00 0.00 0.00 73 1013.7
20260901085007 15 305 11.3 22.5 0.00 0.00 0.00 73 1013.7
20260901084514 15 241 9.7 24.1 0.00 0.00 0.00 73 1013.7
20260901084010 15 120 4.8 24.1 0.00 0.00 0.00 73 1013.8
20260901083506 15 248 8.0 17.7 0.00 0.00 0.00 73 1013.8
20260901083022 15 180 9.7 19.3 0.00 0.00 0.00 73 1013.7
20260901082509 15 253 9.7 24.1 0.00 0.00 0.00 73 1013.7
20260901082009 15 193 11.3 24.1 0.00 0.00 0.00 73 1013.7
20260901081525 15 230 3.2 17.7 0.00 0.00 0.00 73 1013.7
20260901081015 15 238 4.8 17.7 0.00 0.00 0.00 74 1013.7
20260901080517 15 249 6.4 16.1 0.00 0.00 0.00 74 1013.7
20260901080006 15 205 4.8 17.7 0.00 0.00 0.00 74 1013.7
20260901075504 15 271 3.2 22.5 0.00 0.00 0.00 74 1013.6
20260901075004 15 221 9.7 22.5 0.00 0.00 0.00 74 1013.6
20260901074515 15 220 6.4 19.3 0.00 0.00 0.00 73 1013.6
20260901074010 15 243 8.0 19.3 0.00 0.00 0.00 73 1013.6
20260901073506 15 153 8.0 19.3 0.00 0.00 0.00 73 1013.6
20260901073016 15 219 9.7 22.5 0.00 0.00 0.00 73 1013.6
20260901072510 15 186 8.0 22.5 0.00 0.00 0.00 74 1013.5
20260901072007 15 281 8.0 19.3 0.00 0.00 0.00 74 1013.6
20260901071523 14 243 9.7 17.7 0.00 0.00 0.00 74 1013.6
20260901071013 14 227 6.4 16.1 0.00 0.00 0.00 75 1013.5
20260901070515 14 256 4.8 16.1 0.00 0.00 0.00 75 1013.5
20260901070033 14 311 4.8 16.1 0.00 0.00 0.00 75 1013.5
20260901065515 15 291 4.8 20.9 0.00 0.00 0.00 74 1013.6
20260901065015 15 232 11.3 20.9 0.00 0.00 0.00 74 1013.7
20260901064530 15 236 6.4 22.5 0.00 0.00 0.00 74 1013.7
20260901064006 15 279 4.8 22.5 0.00 0.00 0.00 74 1013.6
20260901063506 15 240 8.0 22.5 0.00 0.00 0.00 74 1013.6
20260901063014 15 243 4.8 19.3 0.00 0.00 0.00 74 1013.6
20260901062508 15 228 3.2 19.3 0.00 0.00 0.00 74 1013.7
20260901062011 15 261 6.4 25.7 0.00 0.00 0.00 74 1013.8
20260901061521 15 240 8.0 25.7 0.00 0.00 0.00 74 1013.8
20260901061010 15 215 6.4 22.5 0.00 0.00 0.00 74 1013.8
20260901060509 15 283 6.4 22.5 0.00 0.00 0.00 75 1013.8
20260901060028 15 226 4.8 16.1 0.00 0.00 0.00 75 1013.8
20260901055514 15 266 8.0 14.5 0.00 0.00 0.00 75 1013.8
20260901055011 14 252 6.4 17.7 0.00 0.00 0.00 75 1013.8
20260901054529 14 236 6.4 17.7 0.00 0.00 0.00 75 1013.9
20260901054014 14 259 9.7 17.7 0.00 0.00 0.00 75 1013.7
20260901053516 14 249 4.8 16.1 0.00 0.00 0.00 75 1013.6
20260901053035 14 235 4.8 20.9 0.00 0.00 0.00 75 1013.6
20260901052515 14 259 8.0 20.9 0.00 0.00 0.00 75 1013.5
20260901052017 14 244 3.2 12.9 0.00 0.00 0.00 75 1013.6
20260901051514 14 233 4.8 25.7 0.00 0.00 0.00 75 1013.5
20260901051011 14 296 4.8 27.4 0.00 0.00 0.00 75 1013.5
20260901050510 14 228 9.7 27.4 0.00 0.00 0.00 75 1013.4
20260901050024 14 276 11.3 19.3 0.00 0.00 0.00 75 1013.4
20260901045512 14 326 6.4 17.7 0.00 0.00 0.00 75 1013.4
20260901045015 14 241 4.8 12.9 0.00 0.00 0.00 75 1013.4
20260901044536 14 227 4.8 12.9 0.00 0.00 0.00 75 1013.4
20260901044015 15 233 4.8 9.7 0.00 0.00 0.00 74 1013.4
20260901043516 15 285 4.8 16.1 0.00 0.00 0.00 74 1013.5
20260901043032 15 295 8.0 16.1 0.00 0.00 0.00 74 1013.4
20260901042516 15 250 3.2 17.7 0.00 0.00 0.00 75 1013.5
20260901042015 15 266 4.8 17.7 0.00 0.00 0.00 75 1013.5
20260901041535 15 255 6.4 17.7 0.00 0.00 0.00 75 1013.4
20260901041018 15 298 1.6 19.3 0.00 0.00 0.00 75 1013.4
20260901040519 15 285 4.8 19.3 0.00 0.00 0.00 75 1013.3
20260901040035 15 301 9.7 19.3 0.00 0.00 0.00 75 1013.3
20260901035507 15 213 8.0 16.1 0.00 0.00 0.00 75 1013.3
20260901035008 15 302 3.2 16.1 0.00 0.00 0.00 75 1013.3
20260901034534 15 161 6.4 19.3 0.00 0.00 0.00 75 1013.2
20260901034011 15 236 9.7 29.0 0.00 0.00 0.00 75 1013.0
20260901033514 15 228 12.9 29.0 0.00 0.00 0.00 76 1013.0
20260901033036 15 231 12.9 29.0 0.00 0.00 0.00 75 1012.9
20260901032513 15 248 9.7 30.6 0.00 0.00 0.00 76 1012.9
20260901032016 15 243 12.9 30.6 0.00 0.00 0.00 75 1012.9
20260901031536 15 245 14.5 35.4 0.00 0.00 0.00 75 1012.8
20260901031016 15 252 12.9 35.4 0.00 0.00 0.00 75 1012.8
20260901030516 15 233 14.5 35.4 0.00 0.00 0.00 75 1012.7
20260901030036 15 253 16.1 32.2 0.00 0.00 0.00 75 1012.6
20260901025505 15 241 16.1 29.0 0.00 0.00 0.00 75 1012.7
20260901025002 15 229 16.1 29.0 0.00 0.00 0.00 75 1012.7
20260901024503 15 253 12.9 27.4 0.00 0.00 0.00 75 1012.8
20260901024005 15 214 11.3 27.4 0.00 0.00 0.00 75 1012.8
20260901023503 15 245 14.5 27.4 0.00 0.00 0.00 74 1012.7
20260901023005 15 244 11.3 27.4 0.00 0.00 0.00 74 1012.7
20260901022503 15 203 11.3 25.7 0.00 0.00 0.00 74 1012.5
20260901022003 15 259 11.3 32.2 0.00 0.00 0.00 74 1012.6
20260901021508 15 221 11.3 32.2 0.00 0.00 0.00 73 1012.5
20260901021005 15 162 11.3 24.1 0.00 0.00 0.00 73 1012.5
20260901020504 15 255 14.5 32.2 0.00 0.00 0.00 73 1012.6
20260901020011 15 264 14.5 32.2 0.00 0.00 0.00 73 1012.4
20260901015506 16 268 8.0 30.6 0.00 0.00 0.00 72 1012.5